SILO ALERT LOG
| Silo ID | Alert Type | Alert Message | Silo Type | Points | Depth (mm) | Strength | Temperature (°C) | Humidity (%) | Height (mm) | Volume (㎥) | Weight (t) | Flag | Time |
|---|---|---|---|---|---|---|---|---|---|---|---|---|---|
| WJWJR05 | Humidity | 습도센서 측정값이 80% 초과 | 평 | 55 | 7780 | 2506 | 29.4 | 82.6 | -60 | -6.786 | 0 | 0 | 2026-09-03 13:25:44.000 |
| WJWJR01 | Humidity | 습도센서 측정값이 80% 초과 | 평 | 72 | 7660 | 1054 | 23.8 | 93.9 | -20 | -2.262 | 0 | 0 | 2026-09-03 09:25:59.000 |
| WJWJR05 | Humidity | 습도센서 측정값이 80% 초과 | 평 | 51 | 7660 | 2439 | 23.5 | 92.3 | 59 | 6.786 | 4.29 | 0 | 2026-09-03 09:25:44.000 |
| WJWJR01 | Humidity | 습도센서 측정값이 80% 초과 | 평 | 75 | 7670 | 1116 | 22.1 | 94.7 | -30 | -3.393 | 0 | 0 | 2026-09-03 05:26:02.000 |
| WJWJR05 | Humidity | 습도센서 측정값이 80% 초과 | 평 | 59 | 7760 | 2422 | 22.7 | 91 | -40 | -4.524 | 0 | 0 | 2026-09-03 05:25:43.000 |
| WJWJR01 | Humidity | 습도센서 측정값이 80% 초과 | 평 | 76 | 7630 | 1078 | 22.7 | 93.2 | 9 | 1.131 | 0.715 | 0 | 2026-09-03 01:26:03.000 |
| WJWJR05 | Humidity | 습도센서 측정값이 80% 초과 | 평 | 55 | 7710 | 2439 | 23.4 | 90 | 9 | 1.131 | 0.715 | 0 | 2026-09-03 01:25:45.000 |
| WJWJR01 | Humidity | 습도센서 측정값이 80% 초과 | 평 | 79 | 7670 | 1063 | 24.4 | 89.6 | -30 | -3.393 | 0 | 0 | 2026-09-02 21:25:56.000 |
| WJWJR05 | Humidity | 습도센서 측정값이 80% 초과 | 평 | 58 | 7910 | 2454 | 25.2 | 87.6 | -190 | -21.488 | 0 | 0 | 2026-09-02 21:25:46.000 |
| WJWJR01 | Humidity | 습도센서 측정값이 80% 초과 | 평 | 71 | 7620 | 1047 | 26.7 | 85.4 | 19 | 2.262 | 1.43 | 0 | 2026-09-02 17:25:58.000 |
| WJWJR05 | Humidity | 습도센서 측정값이 80% 초과 | 평 | 58 | 7740 | 2483 | 27 | 86.3 | -20 | -2.262 | 0 | 0 | 2026-09-02 17:25:45.000 |
| WJWJR01 | Humidity | 습도센서 측정값이 80% 초과 | 평 | 82 | 7650 | 1073 | 26 | 90.5 | -10 | -1.131 | 0 | 0 | 2026-09-02 13:26:03.000 |
| WJWJR05 | Humidity | 습도센서 측정값이 80% 초과 | 평 | 56 | 7770 | 2448 | 26.1 | 92.7 | -49 | -5.655 | 0 | 0 | 2026-09-02 13:25:45.000 |
| WJWJR01 | Humidity | 습도센서 측정값이 80% 초과 | 평 | 83 | 7620 | 1089 | 23.2 | 95.2 | 19 | 2.262 | 1.43 | 0 | 2026-09-02 09:26:00.000 |
| WJWJR05 | Humidity | 습도센서 측정값이 80% 초과 | 평 | 56 | 7580 | 2466 | 23.6 | 92.6 | 139 | 15.834 | 10.01 | 0 | 2026-09-02 09:25:43.000 |
| WJWJR01 | Humidity | 습도센서 측정값이 80% 초과 | 평 | 74 | 7680 | 1073 | 22.8 | 95.2 | -40 | -4.524 | 0 | 0 | 2026-09-02 05:25:59.000 |
| WJWJR05 | Humidity | 습도센서 측정값이 80% 초과 | 평 | 59 | 7830 | 2436 | 23.2 | 92.5 | -110 | -12.441 | 0 | 0 | 2026-09-02 05:25:46.000 |
| WJWJR01 | Humidity | 습도센서 측정값이 80% 초과 | 평 | 72 | 7690 | 1091 | 23 | 94.8 | -50 | -5.655 | 0 | 0 | 2026-09-02 01:25:58.000 |
| WJWJR05 | Humidity | 습도센서 측정값이 80% 초과 | 평 | 58 | 7500 | 2491 | 23.4 | 92.1 | 219 | 24.881 | 15.73 | 0 | 2026-09-02 01:25:41.000 |
| WJWJR01 | Humidity | 습도센서 측정값이 80% 초과 | 평 | 75 | 7690 | 1069 | 23.5 | 93.6 | -50 | -5.655 | 0 | 0 | 2026-09-01 21:26:01.000 |
첫 페이지 1 [2] [3] [4] [5] [마지막 페이지]